This is the latest recevied weather packets stored in our database for station/object OE6PLD-13. If no packets are shown the sender has not sent any weather packets the latest 10 day(s).
| Time | Temp. | Humidity | Pressure | Rain* | Wind** | Luminosity | Snow |
|---|---|---|---|---|---|---|---|
| 1777407401 | 13.33° C | 64% | 1014.1 hPa | 0.76 mm | - | 0 W/m² | - |
| 1777407218 | 13.33° C | 66% | 1014 hPa | 0.76 mm | - | 0 W/m² | - |
| 1777407035 | 13.89° C | 65% | 1014.2 hPa | 0.76 mm | - | 0 W/m² | - |
| 1777406851 | 13.89° C | 65% | 1014 hPa | 0.76 mm | - | 0 W/m² | - |
| 1777406668 | 13.89° C | 62% | 1014 hPa | 0.76 mm | - | 0 W/m² | - |
| 1777406484 | 13.89° C | 60% | 1013.9 hPa | 0.76 mm | - | 0 W/m² | - |
| 1777406301 | 13.89° C | 61% | 1014 hPa | 0.76 mm | - | 0 W/m² | - |
| 1777406118 | 13.89° C | 61% | 1013.9 hPa | 0.76 mm | - | 0 W/m² | - |
| 1777405935 | 13.89° C | 62% | 1013.9 hPa | 0.76 mm | - | 0 W/m² | - |
| 1777405751 | 13.89° C | 64% | 1013.9 hPa | 0.76 mm | - | 0 W/m² | - |
| 1777405568 | 13.89° C | 64% | 1014 hPa | 0.76 mm | - | 0 W/m² | - |
| 1777405384 | 13.89° C | 63% | 1013.8 hPa | 0.76 mm | - | 0 W/m² | - |
| 1777405201 | 13.89° C | 63% | 1014.2 hPa | 0.76 mm | - | 0 W/m² | - |
| 1777405018 | 13.89° C | 63% | 1014.2 hPa | 0.76 mm | - | 0 W/m² | - |
| 1777404834 | 13.89° C | 63% | 1014 hPa | 0.76 mm | - | 0 W/m² | - |
| 1777404651 | 13.89° C | 63% | 1014.1 hPa | 0.76 mm | - | 0 W/m² | - |
| 1777404468 | 13.89° C | 63% | 1014 hPa | 0.76 mm | - | 0 W/m² | - |
| 1777404284 | 13.89° C | 64% | 1013.7 hPa | 0.76 mm | - | 0 W/m² | - |
| 1777404101 | 13.89° C | 62% | 1013.7 hPa | 0.76 mm | - | 0 W/m² | - |
| 1777403917 | 13.89° C | 62% | 1013.9 hPa | 0.76 mm | - | 0 W/m² | - |
| 1777403734 | 14.44° C | 60% | 1013.9 hPa | 0.76 mm | - | 0 W/m² | - |
| 1777403551 | 14.44° C | 60% | 1013.8 hPa | 0.76 mm | - | 0 W/m² | - |
| 1777403367 | 14.44° C | 60% | 1013.9 hPa | 0.76 mm | - | 0 W/m² | - |
| 1777403184 | 14.44° C | 60% | 1013.7 hPa | 0.76 mm | - | 0 W/m² | - |
| 1777403001 | 14.44° C | 60% | 1013.9 hPa | 0.76 mm | - | 0 W/m² | - |
* Rain latest hour (hover to see other rain measurements)
** Current wind speed in m/s (hover to see current wind gust speed)